This demonstration page uses our WeatherBlox Daily Observations layout. Learn more.

Left ArrowRight Arrow

41.55636, -103.73856

Hourly Observations for June 4, 2019

Temp ( °F °C ) Dew Point ( °F °C ) Humidity (%) Winds ( mph kmh ) Pressure ( in mb ) Visibility ( mi km ) Precip ( " mm )
6:58 pm 18:58 Mostly Clear with Light Showers 61 16.2 45 7.4 56 56 SE 6 9 29.94 1014 10 16 0.00 0.00
7:58 pm 19:58 undefined 58 14.5 48 8.8 69 69 SSE 18 30 29.90 1013 10 16 0.00 0.00
8:58 pm 20:58 undefined 55 12.8 48 9.1 78 78 S 9 15 29.89 1012 10 16 0.00 0.00
9:58 pm 21:58 undefined 54 12 47 8.5 79 79 SW 12 19 29.91 1013 10 16 0.00 0.00
10:58 pm 22:58 undefined 53 11.8 47 8.2 79 79 SW 12 19 29.91 1013 10 16 0.00 0.00
11:58 pm 23:58 undefined 54 12.1 45 7.4 73 73 SW 16 26 29.88 1012 10 16 0.00 0.00
12:58 am 00:58 undefined 54 12.3 44 6.9 70 70 SW 16 26 29.87 1011 10 16 0.00 0.00
1:58 am 01:58 undefined 55 12.5 44 6.7 68 68 WSW 18 30 29.85 1011 10 16 0.00 0.00
2:58 am 02:58 undefined 51 10.8 44 6.8 77 77 SW 13 20 29.88 1012 10 16 0.00 0.00
3:58 am 03:58 undefined 50 9.9 44 6.8 81 81 WSW 13 20 29.86 1011 10 16 0.00 0.00
4:59 am 04:59 undefined 56 13.1 41 5.1 59 59 WNW 15 24 29.85 1011 10 16 0.00 0.00
5:58 am 05:58 undefined 56 13.1 41 5.2 59 59 W 16 26 29.88 1012 10 16 0.00 0.00
6:58 am 06:58 undefined 57 13.7 43 6.1 60 60 WNW 15 24 29.90 1013 10 16 0.00 0.00
7:58 am 07:58 undefined 62 16.5 43 6.3 51 51 WNW 17 28 29.91 1013 10 16 0.00 0.00
8:58 am 08:58 undefined 65 18.4 47 8.4 52 52 WNW 18 30 29.93 1014 10 16 0.00 0.00
9:58 am 09:58 undefined 69 20.3 49 9.2 49 49 NW 15 24 29.93 1014 10 16 0.00 0.00
10:58 am 10:58 undefined 71 21.5 49 9.3 46 46 NNW 14 22 29.92 1013 10 16 0.00 0.00
11:58 am 11:58 undefined 72 22.4 43 6.2 35 35 NNW 14 22 29.93 1014 10 16 0.00 0.00
12:58 pm 12:58 undefined 74 23.4 46 8 37 37 N 8 13 29.92 1013 10 16 0.00 0.00
1:58 pm 13:58 undefined 74 23.5 45 7.3 35 35 Calm 29.90 1013 10 16 0.08 2.03
2:58 pm 14:58 undefined 75 24.1 49 9.4 39 39 undefined N/A 29.90 1013 10 16 0.00 0.00
3:58 pm 15:58 undefined 70 21.1 46 7.6 42 42 NW 16 26 29.92 1013 10 16 0.00 0.00
4:58 pm 16:58 undefined 67 19.6 46 7.8 47 47 NNW 10 17 29.92 1013 10 16 0.00 0.00
5:58 pm 17:58 undefined 67 19.6 46 7.7 46 46 NNW 15 24 29.94 1014 10 16 0.00 0.00

Powered by AerisWeather